Katowice, Poland

10:48 PM CET on November 17, 2017 (GMT +0100)
Pyrzowice

Weather History for EPKT - March, 2013

Change the Weather History Date:

Friday, March 15, 2013

  Actual Average Record
Temperature  
Mean Temperature 24 °F -  
Max Temperature 28 °F 48 °F 60 °F (2011)
Min Temperature 21 °F 30 °F 21 °F (2005)
Degree Days  
Heating Degree Days 40    
Moisture  
Dew Point 15 °F    
Average Humidity 69    
Maximum Humidity 86    
Minimum Humidity 51    
Precipitation  
Precipitation 0.00 in - - ()
Sea Level Pressure  
Sea Level Pressure 29.70 in    
Wind  
Wind Speed 14 mph ()    
Max Wind Speed 23 mph    
Max Gust Speed 37 mph    
Visibility 6.2 miles    
Events      
Averages and records for this station are not official NWS values.
T = Trace of Precipitation, MM = Missing Value Source: Averaged Metar Reports

Daily Weather History Graph

Daily Weather History Graph

Search for Another Location

Airport or City:

Trip Planner

Search our weather history database for the weather conditions in past years. The results will help you decide how hot, cold, wet, or windy it might be!

Date:

Astronomy

Mar. 15, 2013 Rise Set
Actual Time 5:57 AM CET 5:48 PM CET
Civil Twilight 5:25 AM CET 6:21 PM CET
Nautical Twilight 4:47 AM CET 6:59 PM CET
Astronomical Twilight 4:08 AM CET 7:38 PM CET
Moon 7:11 AM CET (3/15) 10:13 PM CET (3/15)
Length of Visible Light 12h 55m
Length of Day
11h 51m
Waxing Crescent, 14% of the Moon is Illuminated
Mar 15
Waxing Crescent
Mar 19
First Quarter
Mar 27
Full
Apr 3
Last Quarter
Apr 10
New

Hourly Weather History & Observations

Time (CET) Temp. Windchill Dew Point Humidity Pressure Visibility Wind Dir Wind Speed Gust Speed Precip Events Conditions
12:00 AM 21.2 °F 8.9 °F 15.8 °F 80% 29.59 in - North 12.7 mph - N/A   Clear
12:30 AM 21.2 °F 7.8 °F 14.0 °F 74% 29.59 in - North 15.0 mph - N/A   Clear
1:00 AM 21.2 °F 8.9 °F 14.0 °F 74% 29.59 in - North 12.7 mph - N/A   Clear
1:30 AM 21.2 °F 8.3 °F 14.0 °F 74% 29.59 in - North 13.8 mph - N/A   Clear
2:00 AM 21.2 °F 8.3 °F 14.0 °F 74% 29.59 in - North 13.8 mph - N/A   Clear
2:30 AM 21.2 °F 7.8 °F 14.0 °F 74% 29.56 in - North 15.0 mph - N/A   Clear
3:00 AM 21.2 °F 8.3 °F 14.0 °F 74% 29.56 in - North 13.8 mph - N/A   Clear
3:30 AM 21.2 °F 8.3 °F 14.0 °F 74% 29.56 in - North 13.8 mph - N/A   Clear
4:00 AM 21.2 °F 7.3 °F 14.0 °F 74% 29.56 in - NNW 16.1 mph - N/A   Clear
4:30 AM 21.2 °F 7.3 °F 12.2 °F 68% 29.56 in - NNW 16.1 mph - N/A   Clear
5:00 AM 21.2 °F 6.8 °F 12.2 °F 68% 29.56 in - NNW 17.3 mph - N/A   Clear
5:30 AM 21.2 °F 7.3 °F 12.2 °F 68% 29.56 in - NNW 16.1 mph - N/A   Clear
6:00 AM 21.2 °F 6.8 °F 12.2 °F 68% 29.56 in - NNW 17.3 mph - N/A   Clear
6:30 AM 21.2 °F 7.8 °F 12.2 °F 68% 29.56 in - NNW 15.0 mph - N/A   Clear
7:00 AM 21.2 °F 7.3 °F 12.2 °F 68% 29.59 in - NNW 16.1 mph - N/A   Clear
7:30 AM 21.2 °F 6.8 °F 12.2 °F 68% 29.59 in - NNW 17.3 mph - N/A   Clear
8:00 AM 21.2 °F 6.4 °F 14.0 °F 74% 29.62 in - NNW 18.4 mph - N/A   Clear
8:30 AM 21.2 °F 6.8 °F 14.0 °F 74% 29.62 in - NNW 17.3 mph - N/A   Clear
9:00 AM 23.0 °F 9.2 °F 12.2 °F 63% 29.62 in - NNW 17.3 mph - N/A   Clear
9:30 AM 23.0 °F 8.7 °F 14.0 °F 68% 29.62 in - NNW 18.4 mph - N/A   Clear
10:00 AM 24.8 °F 11.1 °F 14.0 °F 64% 29.65 in - NNW 18.4 mph 29.9 mph N/A   Clear
10:30 AM 24.8 °F 11.5 °F 14.0 °F 64% 29.65 in - NNW 17.3 mph 29.9 mph N/A   Clear
11:00 AM 24.8 °F 10.3 °F 14.0 °F 64% 29.68 in - NNW 20.7 mph - N/A   Clear
11:30 AM 26.6 °F 12.7 °F 14.0 °F 59% 29.68 in - NNW 20.7 mph 32.2 mph N/A   Clear
12:00 PM 26.6 °F 12.4 °F 14.0 °F 59% 29.68 in - NNW 21.9 mph - N/A   Clear
12:30 PM 26.6 °F 12.7 °F 15.8 °F 64% 29.68 in - NNW 20.7 mph - N/A   Clear
1:00 PM 26.6 °F 12.7 °F 14.0 °F 59% 29.71 in - NW 20.7 mph - N/A   Clear
1:30 PM 26.6 °F 13.4 °F 15.8 °F 64% 29.71 in 6.2 mi NW 18.4 mph - N/A   Partly Cloudy
2:00 PM 28.4 °F 15.4 °F 15.8 °F 59% 29.71 in 6.2 mi NW 19.6 mph 36.8 mph N/A   Partly Cloudy
2:30 PM 28.4 °F 14.4 °F 14.0 °F 55% 29.71 in 6.2 mi NW 23.0 mph 34.5 mph N/A   Partly Cloudy
3:00 PM 28.4 °F 14.7 °F 12.2 °F 51% 29.74 in 6.2 mi NW 21.9 mph - N/A   Partly Cloudy
3:30 PM 28.4 °F 15.8 °F 14.0 °F 55% 29.74 in 6.2 mi NW 18.4 mph - N/A   Partly Cloudy
4:00 PM 28.4 °F 15.4 °F 15.8 °F 59% 29.74 in 6.2 mi NW 19.6 mph 31.1 mph N/A   Partly Cloudy
4:30 PM 28.4 °F 15.4 °F 15.8 °F 59% 29.77 in 6.2 mi NW 19.6 mph 31.1 mph N/A   Partly Cloudy
5:00 PM 26.6 °F 13.1 °F 14.0 °F 59% 29.77 in 6.2 mi NNW 19.6 mph - N/A   Partly Cloudy
5:30 PM 26.6 °F 13.8 °F 15.8 °F 64% 29.80 in 6.2 mi NW 17.3 mph - N/A   Partly Cloudy
6:00 PM 26.6 °F 15.2 °F 15.8 °F 64% 29.80 in 6.2 mi NW 13.8 mph 26.5 mph N/A   Partly Cloudy
6:30 PM 26.6 °F 15.2 °F 17.6 °F 69% 29.83 in 6.2 mi NW 13.8 mph - N/A   Partly Cloudy
7:00 PM 26.6 °F 16.2 °F 17.6 °F 69% 29.83 in 6.2 mi NW 11.5 mph - N/A   Scattered Clouds
7:30 PM 26.6 °F 17.5 °F 19.4 °F 74% 29.86 in 6.2 mi WNW 9.2 mph - N/A   Mostly Cloudy
8:00 PM 24.8 °F 14.6 °F 21.2 °F 86% 29.86 in 6.2 mi NW 10.4 mph - N/A   Scattered Clouds
8:30 PM 24.8 °F 14.6 °F 21.2 °F 86% 29.86 in 6.2 mi NW 10.4 mph - N/A   Scattered Clouds
9:00 PM 23.0 °F 13.9 °F 19.4 °F 86% 29.89 in 6.2 mi NW 8.1 mph - N/A   Scattered Clouds
9:30 PM 23.0 °F 13.9 °F 19.4 °F 86% 29.89 in 6.2 mi NW 8.1 mph - N/A   Scattered Clouds
10:00 PM 23.0 °F 15.8 °F 19.4 °F 86% 29.89 in 6.2 mi NW 5.8 mph - N/A   Mostly Cloudy
10:30 PM 23.0 °F 13.1 °F 17.6 °F 80% 29.89 in 6.2 mi NW 9.2 mph - N/A   Mostly Cloudy
11:00 PM 23.0 °F 13.9 °F 17.6 °F 80% 29.92 in 6.2 mi NW 8.1 mph - N/A   Mostly Cloudy
11:30 PM 21.2 °F 12.6 °F 15.8 °F 80% 29.92 in 6.2 mi WNW 6.9 mph - N/A   Mostly Cloudy